Location: Newark
(13.8117°N, 3.6025°W)
Time: 23:29:07
(UTC+00:00)

Vanguard 2 - Pass Details

Date: 02 September 2019
Orbit: 554 x 2937 km, 32.9° (Epoch: 18 October)

Event Time Altitude Azimuth Distance (km) Brightness Sun altitude
Rises 03:55:32 0° 202° (SSW) 5,192 - -30.9°
Exits shadow 04:00:31 - 184° (S) 3,951 10.9 -29.8°
Reaches altitude 10° 04:03:07 10° 170° (S) 3,439 10.8 -29.2°
Maximum altitude 04:04:57 11° 157° (SSE) 3,185 10.7 -28.8°
Drops below altitude 10° 04:06:39 10° 144° (SE) 3,067 10.8 -28.4°
Sets 04:11:43 0° 107° (ESE) 3,495 11.7 -27.2°
